CDT,Max TemperatureF,Mean TemperatureF,Min TemperatureF,Max Dew PointF,MeanDew PointF,Min DewpointF,Max Humidity, Mean Humidity, Min Humidity, Max Sea Level PressureIn, Mean Sea Level PressureIn, Min Sea Level PressureIn, Max VisibilityMiles, Mean VisibilityMiles, Min VisibilityMiles, Max Wind SpeedMPH, Mean Wind SpeedMPH, Max Gust SpeedMPH,PrecipitationIn, CloudCover, Events, WindDirDegrees
2012-8-1,100,84,68,64,62,55,78,52,22,29.95,29.87,29.77,10,10,5,39,10,45,0.00,0,Thunderstorm,156
2012-8-2,89,76,64,64,63,61,88,62,40,29.91,29.87,29.82,10,9,4,13,7,18,0.00,1,,52
2012-8-3,98,83,68,68,63,57,83,57,27,29.93,29.79,29.63,10,10,5,39,9,54,0.19,1,Thunderstorm,177
2012-8-4,64,62,60,57,56,55,82,79,77,30.11,29.98,29.81,10,10,5,26,13,36,0.02,2,Thunderstorm,298
2012-8-5,82,71,60,55,53,48,77,48,30,30.27,30.17,30.10,10,10,10,13,8,,0.00,0,,213
2012-8-6,96,78,59,63,56,52,77,51,25,30.12,30.01,29.90,10,10,10,18,10,23,0.00,0,,161
2012-8-7,95,80,66,64,61,55,83,55,26,29.99,29.96,29.94,10,10,10,17,6,21,0.00,0,,64
2012-8-8,87,78,68,64,62,57,83,61,35,30.05,29.96,29.91,10,10,10,20,9,28,0.00,1,,56
2012-8-9,82,,82,55,55,55,39,39,39,30.12,30.08,30.02,10,10,7,23,10,26,0.00,0,,339
2012-8-10,78,69,60,54,50,48,68,47,34,30.19,30.12,30.07,10,10,10,10,7,16,0.00,0,,48
2012-8-11,75,64,53,57,52,48,82,65,44,30.10,30.03,29.93,10,10,10,14,5,18,0.00,2,,107
2012-8-12,64,62,60,57,57,55,82,79,77,30.08,29.94,29.88,10,10,7,20,9,26,0.00,7,,350
2012-8-13,80,73,66,55,50,39,64,41,30,30.15,30.08,30.00,10,8,0,10,7,,0.00,3,,295
2012-8-14,82,68,53,63,56,52,94,66,42,30.01,29.92,29.78,10,10,5,18,5,25,0.00,0,,160
2012-8-15,89,78,66,64,62,54,83,62,40,29.94,29.75,29.68,10,10,7,33,12,45,0.00,0,,211
2012-8-16,75,66,57,55,46,37,82,51,27,30.13,30.07,29.96,10,10,10,24,15,31,0.00,0,,323
2012-8-17,78,61,44,46,41,37,93,51,23,30.16,30.10,30.02,10,10,10,10,5,17,0.00,0,,332
2012-8-18,66,60,53,55,50,43,100,74,59,30.08,30.03,29.96,10,10,9,20,7,23,0.10,3,Thunderstorm,103
2012-8-19,80,65,50,54,50,43,94,63,26,30.11,30.05,29.98,10,10,10,16,5,20,0.00,1,,325
2012-8-20,82,68,53,55,52,45,100,65,26,30.04,30.00,29.95,10,10,2,12,3,18,0.00,0,,51
2012-8-21,87,68,50,57,52,48,94,58,27,30.04,29.99,29.91,10,10,10,13,6,21,0.00,0,,104
2012-8-22,93,78,62,57,55,48,82,45,24,29.91,29.85,29.80,10,10,10,29,12,37,0.00,0,,162
2012-8-23,91,81,71,66,61,50,78,51,36,29.84,29.81,29.78,10,10,10,23,14,29,0.00,0,,182
2012-8-24,86,78,69,66,65,63,88,67,48,29.87,29.83,29.78,10,10,10,23,12,29,0.00,4,,170
2012-8-25,78,71,64,66,64,63,100,78,61,29.94,29.87,29.82,10,10,2,15,10,18,0.00,5,,112
2012-8-26,87,74,60,66,61,52,100,73,29,30.07,30.00,29.94,10,6,0,10,3,,0.00,1,,104
2012-8-27,93,76,59,68,62,55,100,63,29,30.14,30.08,30.02,10,8,0,14,6,21,0.00,0,,153
2012-8-28,98,81,64,64,61,55,94,52,29,30.07,29.95,29.82,10,10,10,23,10,34,0.00,0,,170
2012-8-29,105,86,66,59,52,46,78,37,17,29.89,29.81,29.71,10,10,10,24,7,34,0.00,0,,173
2012-8-30,104,86,66,61,51,45,68,32,15,29.99,29.81,29.75,10,10,8,22,14,29,0.00,0,,222
2012-8-31,89,76,62,61,56,52,77,53,37,30.07,30.02,29.98,10,10,10,16,8,22,0.00,0,,58